Showing default

HERMES-2, 63243

Orbit data source: Space-Track

HERMES-2, 63243 is a payload satellite owned by ASI (IT) in SSO that was launched on Sat, 15 Mar 2025 UTC via an FALCON 9 launch vehicle from the Air Force Western Test Range (AFWTR). Payload-class satellites include a variety of spacecraft equipped with specific instruments for various scientific and technological missions. These include communications satellites like Starlink; space stations such as the ISS; scientific satellites like the Hubble; Earth observation satellites from companies like Planet Labs, Umbra, and HawkEye 360; GPS; miniature CubeSats for education and research; and military/defense satellites.

Loading next visibility...
Identifier
63243, 2025-052AK
Orbit
SSO
Country
Flag of ITIT
Related business
Manufacturer
MILANP/INAFI
Mission
Operational Civil Astronomy
Bus & Motor
CUBESAT 3U, Unknown motor
Mass
5 kg wet, 5 kg dry
Launch date (UTC)
2025-03-15 (1 year ago)
Launch vehicle
FALCON 9
Launch site
Air Force Western Test Range (AFWTR)
Object type
Payload
Rocket body
Debris
Shape & HBR
Box, 0.2 m
Radar Cross Section
0.035 m², Small (<0.1 m²)

Expand to show TLE details & history
Last TLE update: 16 hours ago

TLE from 16 hours ago
0 HERMES-2
1 63243U 25052AK  26127.19218758  .00009456  00000-0  33793-3 0  9993
2 63243  97.3927  22.3607 0002526 247.4050 112.6923 15.29037149 63750
Epoch: 2026-05-07T04:36Z
TLE epoch observation values (Epoch: 2026-05-07T04:36:45.006Z)
Latitude
-0.00005°
Longitude
88.13132°
Altitude
482.461 km
Speed
7.624 km/s
True Right ascension
01h 29m 26s
True Declination
0° 00' 00"
Sunlit
Object was in daylight at epoch
Visualization orbit readout
Latitude
Unknown
Longitude
Unknown
Altitude
Unknown
Speed
Unknown
Apparent Right ascension
Unknown
Apparent Declination
Unknown
Sunlit
N/A
Visualization observer readout
Local Sidereal Time
04:20:06
Azimuth
Unknown
Elevation
Unknown
Doppler factor
Unknown
Orbital elements
Apogee altitude
477.374 km
Perigee altitude
473.911 km
Semi-major axis
6,853.78 km
Eccentricity
0.00025
Inclination
97.3927°
RAAN
22.3607°
Arg. of periapsis
247.405°
True anomaly
112.719°
Mean anomaly
112.6923°
Eccentric anomaly
112.70565°
Mean motion
3.82515 °/min
Orbital period
94.11 mins
BSTAR
0.00033793
Loading maneuver chart data...
Computing Atmospheric mass density...
Loading historical data...
Loading historical data...
Loading historical data...
Loading historical data...
Loading historical data...
Loading historical data...
Loading historical data...

Documentation

Showing up to 5 results
|